OAL942 LGST-LGAL

Flight info

Callsign OAL942
Flight time 1h 3m
Altitude 28000
Route DELAV DCT ASTIS DCT ERIMA DCT MES UL618 LMO
Aircraft B738/M-SDE2E3FGHIRWXY/LB1

Departure

Time 2026-04-20 20:04
Airport Sitia Airport (LGST)

Arrival

Time 2026-04-20 21:07
Airport Alexandroupoli Democritus Airport (LGAL)
Time Latitude Longitude Altitude Speed Heading
2026-04-20 19:49 35.21596 26.09770 354 ft 0 kts 349°
2026-04-20 20:01 35.21610 26.09770 352 ft 4 kts 31°
2026-04-20 20:01 35.21614 26.09859 350 ft 16 kts 88°
2026-04-20 20:02 35.21606 26.10032 351 ft 25 kts 95°
2026-04-20 20:02 35.21698 26.10235 354 ft 32 kts 48°
2026-04-20 20:02 35.21872 26.10494 334 ft 42 kts 52°
2026-04-20 20:02 35.22000 26.10678 304 ft 28 kts 48°
2026-04-20 20:03 35.22121 26.10863 276 ft 16 kts 50°
2026-04-20 20:03 35.22225 26.10976 268 ft 22 kts 118°
2026-04-20 20:03 35.22155 26.10906 272 ft 16 kts 227°
2026-04-20 20:03 35.21950 26.10605 317 ft 82 kts 230°
2026-04-20 20:04 35.21427 26.09841 358 ft 152 kts 231°
2026-04-20 20:04 35.20644 26.08695 594 ft 183 kts 231°
2026-04-20 20:04 35.19940 26.07475 1034 ft 183 kts 248°
2026-04-20 20:04 35.19587 26.05858 1294 ft 215 kts 267°
2026-04-20 20:05 35.19878 26.04153 1878 ft 194 kts 304°
2026-04-20 20:05 35.20805 26.03110 1938 ft 176 kts 335°
2026-04-20 20:05 35.21966 26.02742 1926 ft 170 kts 357°
2026-04-20 20:05 35.23101 26.02961 1774 ft 164 kts 25°
2026-04-20 20:06 35.24019 26.03749 1610 ft 163 kts 45°
2026-04-20 20:06 35.24739 26.04947 1757 ft 187 kts 59°
2026-04-20 20:06 35.25495 26.06325 2206 ft 204 kts 39°
2026-04-20 20:06 35.26760 26.07136 2804 ft 215 kts 11°
2026-04-20 20:07 35.28295 26.07155 3399 ft 229 kts 350°
2026-04-20 20:07 35.29910 26.06800 4096 ft 243 kts 348°
2026-04-20 20:07 35.31554 26.06448 5023 ft 248 kts 349°
2026-04-20 20:07 35.33318 26.06121 5795 ft 260 kts 351°
2026-04-20 20:08 35.35088 26.05821 6683 ft 265 kts 351°
2026-04-20 20:08 35.36920 26.05517 7582 ft 268 kts 351°
2026-04-20 20:08 35.38763 26.05210 8469 ft 271 kts 350°
2026-04-20 20:08 35.40636 26.04896 9331 ft 274 kts 350°
2026-04-20 20:09 35.42538 26.04573 10156 ft 278 kts 350°
2026-04-20 20:09 35.44453 26.04247 10747 ft 289 kts 350°
2026-04-20 20:09 35.46515 26.03894 11245 ft 304 kts 350°
2026-04-20 20:09 35.48646 26.03532 11717 ft 318 kts 350°
2026-04-20 20:10 35.50900 26.03148 12172 ft 332 kts 350°
2026-04-20 20:10 35.53215 26.02755 12602 ft 347 kts 350°
2026-04-20 20:10 35.55639 26.02344 13239 ft 354 kts 350°
2026-04-20 20:10 35.58096 26.01928 13969 ft 357 kts 350°
2026-04-20 20:11 35.60550 26.01512 14681 ft 361 kts 350°
2026-04-20 20:11 35.63056 26.01087 15373 ft 365 kts 350°
2026-04-20 20:11 35.65557 26.00662 16089 ft 367 kts 349°
2026-04-20 20:11 35.68089 26.00231 16742 ft 370 kts 349°
2026-04-20 20:12 35.70647 25.99796 17417 ft 373 kts 349°
2026-04-20 20:12 35.73234 25.99354 18011 ft 377 kts 349°
2026-04-20 20:12 35.75835 25.98909 18610 ft 380 kts 349°
2026-04-20 20:13 35.81103 25.98009 19791 ft 386 kts 349°
2026-04-20 20:13 35.83783 25.97550 20371 ft 388 kts 349°
2026-04-20 20:13 35.86484 25.97088 20891 ft 392 kts 349°
2026-04-20 20:13 35.89186 25.96625 21433 ft 394 kts 349°
2026-04-20 20:14 35.91884 25.96162 21947 ft 397 kts 349°
2026-04-20 20:14 35.94638 25.95689 22445 ft 400 kts 349°
2026-04-20 20:14 35.97398 25.95215 22929 ft 403 kts 349°
2026-04-20 20:14 36.00177 25.94738 23432 ft 405 kts 349°
2026-04-20 20:15 36.02983 25.94255 23887 ft 408 kts 349°
2026-04-20 20:15 36.05793 25.93771 24401 ft 410 kts 349°
2026-04-20 20:15 36.08608 25.93287 24861 ft 412 kts 349°
2026-04-20 20:15 36.11468 25.92794 25325 ft 414 kts 349°
2026-04-20 20:16 36.14326 25.92302 25778 ft 417 kts 349°
2026-04-20 20:16 36.17218 25.91803 26166 ft 420 kts 349°
2026-04-20 20:16 36.20126 25.91301 26601 ft 423 kts 349°
2026-04-20 20:16 36.23048 25.90796 27040 ft 424 kts 349°
2026-04-20 20:17 36.25973 25.90291 27625 ft 422 kts 348°
2026-04-20 20:17 36.28867 25.89792 27991 ft 425 kts 348°
2026-04-20 20:17 36.31819 25.89281 27996 ft 422 kts 348°
2026-04-20 20:17 36.34696 25.88784 27954 ft 418 kts 349°
2026-04-20 20:18 36.37580 25.88284 27802 ft 418 kts 348°
2026-04-20 20:18 36.40441 25.87788 27693 ft 417 kts 349°
2026-04-20 20:18 36.43303 25.87291 27620 ft 415 kts 349°
2026-04-20 20:18 36.46190 25.86789 27540 ft 414 kts 349°
2026-04-20 20:19 36.49038 25.86294 27435 ft 413 kts 349°
2026-04-20 20:19 36.51878 25.85798 27299 ft 413 kts 349°
2026-04-20 20:19 36.54704 25.85305 27137 ft 414 kts 349°
2026-04-20 20:19 36.57537 25.84810 26992 ft 414 kts 349°
2026-04-20 20:20 36.60391 25.84312 26926 ft 412 kts 349°
2026-04-20 20:20 36.63231 25.83816 26896 ft 409 kts 349°
2026-04-20 20:20 36.66027 25.83328 26818 ft 408 kts 349°
2026-04-20 20:20 36.68839 25.82836 26663 ft 409 kts 349°
2026-04-20 20:21 36.71667 25.82340 26469 ft 410 kts 349°
2026-04-20 20:21 36.74486 25.81846 26325 ft 410 kts 349°
2026-04-20 20:21 36.77316 25.81350 26280 ft 408 kts 349°
2026-04-20 20:21 36.80111 25.80861 26275 ft 405 kts 349°
2026-04-20 20:22 36.82904 25.80371 26187 ft 404 kts 349°
2026-04-20 20:22 36.85701 25.79879 26014 ft 406 kts 349°
2026-04-20 20:22 36.88475 25.79391 26036 ft 402 kts 349°
2026-04-20 20:22 36.91211 25.78911 26182 ft 396 kts 349°
2026-04-20 20:23 36.93926 25.78435 26180 ft 393 kts 349°
2026-04-20 20:23 36.96653 25.77954 25980 ft 396 kts 349°
2026-04-20 20:23 36.99391 25.77470 25862 ft 396 kts 349°
2026-04-20 20:23 37.02091 25.76993 25862 ft 393 kts 349°
2026-04-20 20:24 37.04792 25.76516 25905 ft 390 kts 349°
2026-04-20 20:24 37.07458 25.76045 25845 ft 389 kts 349°
2026-04-20 20:24 37.10149 25.75569 25661 ft 391 kts 349°
2026-04-20 20:24 37.12845 25.75090 25477 ft 394 kts 349°
2026-04-20 20:25 37.15547 25.74610 25411 ft 393 kts 349°
2026-04-20 20:25 37.18264 25.74129 25461 ft 389 kts 349°
2026-04-20 20:25 37.20933 25.73656 25483 ft 387 kts 349°
2026-04-20 20:25 37.23610 25.73181 25352 ft 388 kts 349°
2026-04-20 20:26 37.26276 25.72707 25156 ft 391 kts 349°
2026-04-20 20:26 37.28990 25.72224 25033 ft 392 kts 349°
2026-04-20 20:26 37.31687 25.71744 25024 ft 390 kts 349°
2026-04-20 20:26 37.34331 25.71275 25061 ft 387 kts 349°
2026-04-20 20:27 37.37007 25.70799 25034 ft 386 kts 349°
2026-04-20 20:27 37.39656 25.70326 24894 ft 388 kts 349°
2026-04-20 20:27 37.42337 25.69846 24713 ft 391 kts 349°
2026-04-20 20:27 37.45055 25.69360 24617 ft 391 kts 349°
2026-04-20 20:28 37.47715 25.68885 24636 ft 388 kts 350°
2026-04-20 20:28 37.50390 25.68408 24679 ft 386 kts 350°
2026-04-20 20:28 37.53041 25.67935 24606 ft 386 kts 350°
2026-04-20 20:28 37.55724 25.67454 24445 ft 388 kts 350°
2026-04-20 20:29 37.58377 25.66978 24297 ft 390 kts 350°
2026-04-20 20:29 37.61054 25.66497 24234 ft 390 kts 350°
2026-04-20 20:29 37.63725 25.66018 24270 ft 387 kts 349°
2026-04-20 20:29 37.66415 25.65536 24289 ft 385 kts 350°
2026-04-20 20:30 37.69053 25.65063 24199 ft 386 kts 350°
2026-04-20 20:30 37.71726 25.64581 24039 ft 388 kts 350°
2026-04-20 20:30 37.74394 25.64101 23924 ft 389 kts 350°
2026-04-20 20:30 37.77060 25.63621 23912 ft 388 kts 350°
2026-04-20 20:31 37.79735 25.63140 23918 ft 386 kts 350°
2026-04-20 20:31 37.82393 25.62661 23885 ft 385 kts 350°
2026-04-20 20:31 37.85031 25.62185 23776 ft 387 kts 350°
2026-04-20 20:31 37.87696 25.61704 23649 ft 388 kts 350°
2026-04-20 20:32 37.90378 25.61219 23595 ft 388 kts 350°
2026-04-20 20:32 37.93029 25.60740 23599 ft 386 kts 350°
2026-04-20 20:32 37.95719 25.60253 23595 ft 385 kts 350°
2026-04-20 20:32 37.98354 25.59775 23517 ft 386 kts 350°
2026-04-20 20:33 38.01017 25.59292 23382 ft 388 kts 350°
2026-04-20 20:33 38.03686 25.58807 23297 ft 388 kts 350°
2026-04-20 20:33 38.06361 25.58322 23302 ft 387 kts 350°
2026-04-20 20:33 38.09029 25.57838 23349 ft 384 kts 350°
2026-04-20 20:34 38.11659 25.57361 23309 ft 384 kts 350°
2026-04-20 20:34 38.14315 25.56877 23182 ft 386 kts 350°
2026-04-20 20:34 38.16988 25.56390 23107 ft 387 kts 350°
2026-04-20 20:34 38.19640 25.55907 23137 ft 385 kts 350°
2026-04-20 20:35 38.22266 25.55428 23173 ft 383 kts 350°
2026-04-20 20:35 38.24890 25.54950 23100 ft 384 kts 350°
2026-04-20 20:35 38.27565 25.54461 22936 ft 387 kts 350°
2026-04-20 20:35 38.30232 25.53973 22825 ft 388 kts 350°
2026-04-20 20:36 38.32899 25.53485 22844 ft 386 kts 350°
2026-04-20 20:36 38.35545 25.53002 22914 ft 384 kts 350°
2026-04-20 20:36 38.38177 25.52520 22882 ft 384 kts 350°
2026-04-20 20:36 38.40820 25.52036 22719 ft 387 kts 350°
2026-04-20 20:37 38.43509 25.51542 22615 ft 388 kts 350°
2026-04-20 20:37 38.46159 25.51056 22646 ft 386 kts 350°
2026-04-20 20:37 38.48832 25.50566 22725 ft 383 kts 350°
2026-04-20 20:37 38.51442 25.50087 22708 ft 383 kts 350°
2026-04-20 20:38 38.54114 25.49595 22558 ft 386 kts 350°
2026-04-20 20:38 38.56780 25.49103 22466 ft 393 kts 350°
2026-04-20 20:38 38.59520 25.48596 22621 ft 405 kts 350°
2026-04-20 20:38 38.62341 25.48073 22804 ft 416 kts 350°
2026-04-20 20:39 38.65250 25.47534 23038 ft 426 kts 350°
2026-04-20 20:39 38.68214 25.46985 23285 ft 434 kts 350°
2026-04-20 20:39 38.71202 25.46432 23540 ft 440 kts 350°
2026-04-20 20:39 38.74226 25.45875 23511 ft 430 kts 350°
2026-04-20 20:40 38.77121 25.45345 23504 ft 412 kts 350°
2026-04-20 20:40 38.79888 25.44839 23509 ft 394 kts 350°
2026-04-20 20:40 38.82575 25.44345 23512 ft 388 kts 350°
2026-04-20 20:40 38.85251 25.43848 23511 ft 392 kts 350°
2026-04-20 20:41 38.87942 25.43345 23505 ft 394 kts 350°
2026-04-20 20:41 38.90675 25.42837 23503 ft 393 kts 350°
2026-04-20 20:41 38.93380 25.42333 23504 ft 393 kts 350°
2026-04-20 20:41 38.96063 25.41832 23509 ft 394 kts 350°
2026-04-20 20:42 38.98793 25.41323 23507 ft 394 kts 350°
2026-04-20 20:42 39.01484 25.40820 23507 ft 394 kts 350°
2026-04-20 20:42 39.04212 25.40311 23505 ft 393 kts 350°
2026-04-20 20:42 39.06893 25.39810 23503 ft 394 kts 350°
2026-04-20 20:43 39.09620 25.39300 23502 ft 393 kts 350°
2026-04-20 20:43 39.12309 25.38797 23504 ft 393 kts 350°
2026-04-20 20:43 39.15048 25.38284 23502 ft 393 kts 350°
2026-04-20 20:43 39.17735 25.37781 23506 ft 393 kts 350°
2026-04-20 20:44 39.20450 25.37272 23506 ft 394 kts 350°
2026-04-20 20:44 39.23145 25.36767 23507 ft 394 kts 350°
2026-04-20 20:44 39.25882 25.36253 23504 ft 393 kts 350°
2026-04-20 20:44 39.28585 25.35746 23507 ft 394 kts 350°
2026-04-20 20:45 39.31274 25.35240 23504 ft 394 kts 350°
2026-04-20 20:45 39.34006 25.34726 23507 ft 393 kts 349°
2026-04-20 20:45 39.36713 25.34216 23508 ft 395 kts 349°
2026-04-20 20:45 39.39430 25.33705 23508 ft 394 kts 349°
2026-04-20 20:46 39.42128 25.33196 23503 ft 393 kts 349°
2026-04-20 20:46 39.44855 25.32682 23501 ft 393 kts 349°
2026-04-20 20:46 39.47554 25.32172 23500 ft 394 kts 349°
2026-04-20 20:46 39.50251 25.31662 23501 ft 394 kts 349°
2026-04-20 20:47 39.52970 25.31147 23504 ft 394 kts 349°
2026-04-20 20:47 39.55658 25.30638 23501 ft 394 kts 349°
2026-04-20 20:47 39.58370 25.30125 23503 ft 394 kts 349°
2026-04-20 20:47 39.61113 25.29604 23503 ft 394 kts 349°
2026-04-20 20:48 39.63816 25.29091 23504 ft 394 kts 349°
2026-04-20 20:48 39.66505 25.28580 23507 ft 395 kts 349°
2026-04-20 20:48 39.69249 25.28058 23510 ft 395 kts 349°
2026-04-20 20:48 39.71938 25.27547 23511 ft 395 kts 349°
2026-04-20 20:49 39.74652 25.27030 23508 ft 394 kts 349°
2026-04-20 20:49 39.77363 25.26514 23509 ft 395 kts 349°
2026-04-20 20:49 39.80086 25.25995 23510 ft 394 kts 349°
2026-04-20 20:49 39.82787 25.25480 23510 ft 394 kts 349°
2026-04-20 20:50 39.85512 25.24963 23512 ft 395 kts 349°
2026-04-20 20:50 39.88251 25.24612 23511 ft 397 kts 355°
2026-04-20 20:50 39.90992 25.24760 23513 ft 401 kts
2026-04-20 20:50 39.93738 25.25625 23515 ft 405 kts 16°
2026-04-20 20:51 39.96300 25.27037 23396 ft 399 kts 22°
2026-04-20 20:51 39.98741 25.28707 22873 ft 387 kts 25°
2026-04-20 20:51 40.01051 25.30430 22057 ft 384 kts 26°
2026-04-20 20:51 40.03313 25.32174 21247 ft 379 kts 27°
2026-04-20 20:52 40.05575 25.33935 20397 ft 376 kts 27°
2026-04-20 20:52 40.07788 25.35656 19546 ft 372 kts 27°
2026-04-20 20:52 40.09978 25.37353 18744 ft 368 kts 27°
2026-04-20 20:52 40.12181 25.39053 17921 ft 364 kts 27°
2026-04-20 20:53 40.14336 25.40713 17141 ft 360 kts 27°
2026-04-20 20:53 40.16469 25.42353 16366 ft 355 kts 27°
2026-04-20 20:53 40.18556 25.43953 15608 ft 351 kts 27°
2026-04-20 20:53 40.20662 25.45566 14817 ft 347 kts 27°
2026-04-20 20:54 40.22716 25.47138 14072 ft 343 kts 27°
2026-04-20 20:54 40.24762 25.48705 13337 ft 338 kts 27°
2026-04-20 20:54 40.26776 25.50249 12593 ft 334 kts 27°
2026-04-20 20:54 40.28739 25.51755 11865 ft 331 kts 27°
2026-04-20 20:55 40.30728 25.53281 11125 ft 327 kts 27°
2026-04-20 20:55 40.32676 25.54774 10414 ft 323 kts 27°
2026-04-20 20:55 40.34582 25.56236 9932 ft 320 kts 27°
2026-04-20 20:55 40.36505 25.57711 9463 ft 319 kts 27°
2026-04-20 20:56 40.38403 25.59170 9036 ft 317 kts 27°
2026-04-20 20:56 40.40304 25.60632 8614 ft 315 kts 27°
2026-04-20 20:56 40.42194 25.62087 8202 ft 312 kts 27°
2026-04-20 20:56 40.44049 25.63517 7951 ft 307 kts 27°
2026-04-20 20:57 40.45900 25.64946 7953 ft 311 kts 27°
2026-04-20 20:57 40.47776 25.66393 7961 ft 312 kts 28°
2026-04-20 20:57 40.49643 25.67836 7971 ft 312 kts 28°
2026-04-20 20:57 40.51509 25.69282 7957 ft 311 kts 28°
2026-04-20 20:58 40.53353 25.70713 7879 ft 304 kts 28°
2026-04-20 20:58 40.55127 25.72093 7594 ft 288 kts 28°
2026-04-20 20:58 40.56810 25.73401 7218 ft 278 kts 28°
2026-04-20 20:58 40.58453 25.74675 6726 ft 273 kts 28°
2026-04-20 20:59 40.60069 25.75927 6204 ft 270 kts 28°
2026-04-20 20:59 40.61684 25.77181 5640 ft 269 kts 28°
2026-04-20 20:59 40.63285 25.78394 5103 ft 266 kts 23°
2026-04-20 20:59 40.65048 25.78869 4549 ft 258 kts 350°
2026-04-20 21:00 40.66611 25.77946 4293 ft 242 kts 315°
2026-04-20 21:00 40.67601 25.76240 4114 ft 230 kts 304°
2026-04-20 21:00 40.68527 25.74551 3722 ft 227 kts 310°
2026-04-20 21:00 40.69566 25.73023 3455 ft 221 kts 316°
2026-04-20 21:01 40.70723 25.71672 3464 ft 224 kts 322°
2026-04-20 21:01 40.71977 25.70451 3457 ft 225 kts 326°
2026-04-20 21:01 40.73300 25.69332 3462 ft 226 kts 329°
2026-04-20 21:01 40.74680 25.68306 3463 ft 225 kts 333°
2026-04-20 21:02 40.76093 25.67417 3475 ft 225 kts 340°
2026-04-20 21:02 40.77625 25.67162 3439 ft 228 kts 12°
2026-04-20 21:02 40.79051 25.68082 3465 ft 232 kts 41°
2026-04-20 21:02 40.80036 25.69775 3457 ft 229 kts 62°
2026-04-20 21:03 40.80546 25.71658 3457 ft 210 kts 73°
2026-04-20 21:03 40.80891 25.73455 3317 ft 196 kts 73°
2026-04-20 21:03 40.81218 25.75145 3201 ft 179 kts 72°
2026-04-20 21:03 40.81528 25.76695 3043 ft 173 kts 72°
2026-04-20 21:04 40.81834 25.78204 2989 ft 170 kts 72°
2026-04-20 21:04 40.82129 25.79763 2936 ft 177 kts 76°
2026-04-20 21:04 40.82325 25.81351 2437 ft 178 kts 77°
2026-04-20 21:04 40.82608 25.82928 1934 ft 173 kts 73°
2026-04-20 21:05 40.82927 25.84384 1648 ft 163 kts 71°
2026-04-20 21:05 40.83267 25.85823 1386 ft 161 kts 69°
2026-04-20 21:05 40.83604 25.87157 1192 ft 153 kts 70°
2026-04-20 21:05 40.83944 25.88492 886 ft 152 kts 69°
2026-04-20 21:06 40.84252 25.89790 644 ft 149 kts 72°
2026-04-20 21:06 40.84560 25.91091 437 ft 146 kts 72°
2026-04-20 21:06 40.84835 25.92373 306 ft 146 kts 73°
2026-04-20 21:06 40.85125 25.93666 139 ft 148 kts 72°
2026-04-20 21:07 40.85418 25.94919 17 ft 123 kts 73°
2026-04-20 21:07 40.85593 25.95675 20 ft 51 kts 73°
2026-04-20 21:07 40.85645 25.95872 21 ft 4 kts 146°
2026-04-20 21:07 40.85604 25.95771 20 ft 21 kts 255°
2026-04-20 21:08 40.85563 25.95567 19 ft 24 kts 254°
2026-04-20 21:08 40.85511 25.95339 17 ft 27 kts 252°
2026-04-20 21:08 40.85453 25.95088 17 ft 27 kts 254°
2026-04-20 21:08 40.85487 25.94846 18 ft 28 kts 298°
2026-04-20 21:09 40.85529 25.94597 19 ft 29 kts 256°
2026-04-20 21:09 40.85577 25.94480 19 ft 18 kts 58°